Regional Weather Roundup
Issued by NWS

Home | Current Version | Previous Version | Text Only | Print | Product List | Glossary On
Versions: 1 2 3 4 5 6 7 8 9 10 11 12 13 14 15 16 17 18 19 20 21 22 23 24 25 26 27 28 29 30 31 32 33 34 35 36 37 38 39 40 41 42 43 44 45 46 47 48 49 50
000
ASUS43 KMPX 271601
RWRMN
WEATHER ROUNDUP FOR MINNESOTA
NATIONAL WEATHER SERVICE TWIN CITIES/CHANHASSEN MN
1100 AM CDT MON APR 27 2015


NOTE: "FAIR" INDICATES FEW OR NO CLOUDS BELOW 12,000 FEET WITH NO
SIGNIFICANT WEATHER AND/OR OBSTRUCTIONS TO VISIBILITY. N/A MEANS
CURRENT SKY AND/OR WEATHER CONDITIONS ARE NOT AVAILABLE.

MNZ060>063-068>070-271700-
   Twin Cities Metro

CITY           SKY/WX    TMP DP  RH WIND       PRES   REMARKS
TWIN CITIES    SUNNY     59  29  31 NW7       30.25S
ST PAUL        SUNNY     60  28  29 N8        30.25S
CRYSTAL        SUNNY     60  28  29 N6        30.24F
BLAINE         SUNNY     59  28  31 CALM      30.25S
LAKEVILLE      SUNNY     57  28  33 NE5       30.24F
EDEN PRAIRIE   SUNNY     60  30  32 NE6       30.24S
SOUTH ST PAUL  SUNNY     58  27  30 N3        30.24F
LAKE ELMO      FAIR      57  30  35 N6        30.25F
$$
MNZ001>005-007-008-013>017-022>024-027-028-271700-
   Northwest Minnesota

CITY           SKY/WX    TMP DP  RH WIND       PRES   REMARKS
BEMIDJI        SUNNY     63  24  22 W8        30.23R
HALLOCK        PTSUNNY   55  45  67 N12       30.22S
ROSEAU         PTSUNNY   64  28  25 W9        30.21S
WARROAD        MOSUNNY   64  32  29 W9        30.21S
THIEF RVR FALL MOSUNNY   64  28  25 W10       30.22S
CROOKSTON      MOSUNNY   63  32  31 NW7       30.23S
FOSSTON        SUNNY     64  21  19 W5        30.23S
DETROIT LAKES  SUNNY     63  23  22 W9        30.26R
MOORHEAD       MOSUNNY   61  25  25 SW5       30.25S
PARK RAPIDS    SUNNY     65  21  18 W13G21    30.23S
MAHNOMEN       FAIR      61  25  24 W8        30.23F
$$
MNZ006-009>011-018-025>026-271700-
   North Central Minnesota

CITY           SKY/WX    TMP DP  RH WIND       PRES   REMARKS
BAUDETTE       MOSUNNY   63  23  21 N5        30.21S
FLAG ISLAND    MOSUNNY   46  27  46 SE6       30.20S
INTL FALLS     SUNNY     60  23  24 VRB3      30.22S
WASKISH        SUNNY     59  27  29 CALM      30.23S
BIG FORK       SUNNY     64  19  17 W3        30.22S
LONGVILLE      SUNNY     61  19  20 NW6       30.24R
GRAND RAPIDS   SUNNY     57  23  26 N6        30.24R
CRANE LAKE     SUNNY     55  27  33 NW3       30.25S
ORR            SUNNY     57  21  24 CALM      30.21R
COOK           SUNNY     57  28  33 NW6       30.23S
WALKER         FAIR      60  21  22 W3        30.23S
$$
MNZ012-019>021-037-271700-
   Northeast Minnesota

CITY           SKY/WX    TMP DP  RH WIND       PRES   REMARKS
DULUTH         SUNNY     59  27  29 N8        30.22S
ELY            SUNNY     54  27  35 N3        30.23S
HIBBING        SUNNY     60  23  24 NE9       30.22S
EVELETH        SUNNY     59  28  31 N6        30.23S
DULUTH HARBOR  SUNNY     46  36  66 E5        30.25S
TWO HARBORS    SUNNY     57  36  44 E7        30.21S
SILVER BAY     SUNNY     57  28  33 SE6       30.20F
GRAND MARAIS     N/A     45  30  55 SW3       30.22S
G MARAIS ARPRT SUNNY     55  25  30 N9        30.21S
$$
MNZ029>031-032-039>041-046>048-054>057-064-271700-
   West Central Minnesota

CITY           SKY/WX    TMP DP  RH WIND       PRES   REMARKS
FERGUS FALLS   SUNNY     61  16  17 W7        30.27S
WHEATON        SUNNY     61  27  27 W8        30.27S
MORRIS         SUNNY     63  25  23 W6        30.25S
ALEXANDRIA     SUNNY     59  26  28 NW8       30.27S
ELBOW LAKE     FAIR      60  27  28 W6        30.26S
WADENA         SUNNY     61  27  27 MISG      30.25R
GLENWOOD       SUNNY     59  27  29 SW9       30.27S
APPLETON       SUNNY     63  25  23 W6        30.26S
BENSON         SUNNY     61  21  21 W6        30.26F
ORTONVILLE     SUNNY     61  25  25 W5        30.26S
MADISON        SUNNY     61  21  21 CALM      30.25F
WILLMAR        FAIR      59  28  31 W7        30.27F
$$
MNZ033>034-036-042>043-049>051-058-059-271700-
   Central Minnesota

CITY           SKY/WX    TMP DP  RH WIND       PRES   REMARKS
ST CLOUD       SUNNY     57  28  33 SW5       30.25S
SAUK CENTRE    FAIR      58  28  30 NW9G16    30.26S
PAYNESVILLE    SUNNY     56  26  31 SW6       30.26S
AITKIN         SUNNY     61  14  16 CALM      30.21S
PINE RIVER     SUNNY     63  28  27 NW7       30.26S
BRAINERD       SUNNY     60  21  22 VRB7      30.24S
STAPLES        SUNNY     61  19  20 W8        30.24S
LONG PRAIRIE   FAIR      57  28  33 W9        30.26S
LITTLE FALLS   SUNNY     59  23  25 NW6       30.25S
LITCHFIELD     SUNNY     61  27  27 W5        30.26S
BUFFALO        SUNNY     57  28  32 W6        30.26S
MAPLE LAKE     SUNNY     59  30  33 W6        30.26F
$$
MNZ037-044-045-052-053-271700-
   East Central Minnesota

CITY           SKY/WX    TMP DP  RH WIND       PRES   REMARKS
PRINCETON      SUNNY     61  27  27 W5        30.25S
MORA           SUNNY     57  27  30 NW7       30.26S
CAMBRIDGE      SUNNY     61  37  41 W7        30.23S
RUSH CITY      SUNNY     57  30  36 CALM      30.25S
MOOSE LAKE     SUNNY     59  28  31 CALM      30.22S
HINCKLEY       FAIR      59  28  31 NW6       30.24S
CLOQUET        SUNNY     59  21  23 N5        30.22S
MCGREGOR       SUNNY     59  23  25 CALM      30.24S
$$
MNZ071>073-080-081-089-090-097-098-271700-
   Southwest Minnesota

CITY           SKY/WX    TMP DP  RH WIND       PRES   REMARKS
MONTEVIDEO     SUNNY     63  28  27 W5        30.26F
GRANITE FALLS  SUNNY     60  24  24 CALM      30.27F
CANBY          SUNNY     60  29  30 CALM      30.27S
MARSHALL       SUNNY     61  25  25 SE6       30.25F
REDWOOD FALLS  SUNNY     59  27  29 S3        30.26S
OLIVIA         SUNNY     57  27  30 SW3       30.25S
PIPESTONE      SUNNY     59  21  23 N2        30.24S
WORTHINGTON    SUNNY     59  25  27 NE3       30.25S
JACKSON        SUNNY     59  23  25 NE9       30.25S
TRACY          SUNNY     60  26  26 CALM      30.25F
SLAYTON        SUNNY     58  20  22 CALM      30.25F
$$
MNZ065>067-074>077-082>085-091>093-271700-
   South Central Minnesota

CITY           SKY/WX    TMP DP  RH WIND       PRES   REMARKS
MANKATO        SUNNY     57  28  33 NE9       30.25S
NEW ULM        SUNNY     57  27  30 CALM      30.25S
ST JAMES       SUNNY     61  23  23 N5        30.26S
FAIRMONT       SUNNY     59  27  29 N10       30.24S
GLENCOE        SUNNY     59  31  34 CALM      30.25S
FARIBAULT      SUNNY     57  28  33 NE8       30.25S
OWATONNA       SUNNY     57  27  30 N6        30.24R
ALBERT LEA     SUNNY     55  25  30 N13       30.23S
$$
MNZ078>079-086>088-094>096-271700-
   Southeast Minnesota

CITY           SKY/WX    TMP DP  RH WIND       PRES   REMARKS
ROCHESTER      SUNNY     55  33  43 N5        30.25R
RED WING       SUNNY     55  28  35 SW5       30.23F
STANTON        SUNNY     58  27  30 N8        30.23S
DODGE CENTER   SUNNY     55  34  44 NE7       30.24S
WINONA         SUNNY     55  32  41 W5        30.22F
AUSTIN         SUNNY     54  34  47 NE6       30.23S
PRESTON        SUNNY     52  32  47 N8        30.23S
$$
ABBREVIATIONS USED IN REMARKS
   TC - TEMPERATURES IN CELSIUS
  WCI - WIND CHILL INDEX
   HX - HEAT INDEX
  VSB - VISIBILITY
$$


USA.gov is the U.S. government's official web portal to all federal, state and local government web resources and services.